WZZ6903 LHBP-LGAV

Flight info

Callsign WZZ6903
Flight time 1h 38m
Altitude 35000
Route FAHAZ DCT KEROP DCT PELOV DCT NISVA DCT NIKTI DCT LMO/N0422F320 UT162 AMISI/N0374F240 T162 NEVRA
Aircraft A320/M-SDE1E2E3FGIJ1J4RWXY/LB1

Departure

Time 2026-05-06 06:27
Airport Budapest Liszt Ferenc International Airport (LHBP)

Arrival

Time 2026-05-06 08:06
Airport Athens Eleftherios Venizelos International Airport (LGAV)
Time Latitude Longitude Altitude Speed Heading
2026-05-06 05:45 47.43422 19.26614 458 ft 0 kts 222°
2026-05-06 06:15 47.43438 19.26636 457 ft 3 kts 222°
2026-05-06 06:15 47.43452 19.26657 456 ft 3 kts 242°
2026-05-06 06:16 47.43456 19.26685 456 ft 3 kts 294°
2026-05-06 06:16 47.43443 19.26712 454 ft 3 kts 316°
2026-05-06 06:16 47.43427 19.26735 456 ft 2 kts 313°
2026-05-06 06:16 47.43426 19.26737 455 ft 1 kts 312°
2026-05-06 06:20 47.43431 19.26728 455 ft 2 kts 312°
2026-05-06 06:20 47.43449 19.26699 457 ft 6 kts 312°
2026-05-06 06:20 47.43480 19.26650 458 ft 8 kts 313°
2026-05-06 06:20 47.43520 19.26586 458 ft 10 kts 311°
2026-05-06 06:21 47.43569 19.26506 458 ft 12 kts 312°
2026-05-06 06:21 47.43625 19.26415 457 ft 9 kts 313°
2026-05-06 06:21 47.43669 19.26351 457 ft 10 kts 326°
2026-05-06 06:21 47.43730 19.26387 457 ft 11 kts 44°
2026-05-06 06:22 47.43797 19.26407 457 ft 11 kts 323°
2026-05-06 06:22 47.43851 19.26311 458 ft 13 kts 311°
2026-05-06 06:22 47.43916 19.26219 458 ft 10 kts 338°
2026-05-06 06:22 47.43984 19.26242 457 ft 10 kts 38°
2026-05-06 06:23 47.43996 19.26260 458 ft 0 kts 45°
2026-05-06 06:23 47.43997 19.26261 459 ft 0 kts 45°
2026-05-06 06:24 47.44002 19.26268 458 ft 3 kts 45°
2026-05-06 06:24 47.44027 19.26306 461 ft 7 kts 45°
2026-05-06 06:25 47.44057 19.26369 467 ft 8 kts 65°
2026-05-06 06:25 47.44071 19.26440 471 ft 7 kts 78°
2026-05-06 06:25 47.44074 19.26518 470 ft 0 kts 134°
2026-05-06 06:26 47.44073 19.26519 470 ft 3 kts 134°
2026-05-06 06:26 47.43894 19.26802 469 ft 73 kts 132°
2026-05-06 06:26 47.43409 19.27585 468 ft 130 kts 132°
2026-05-06 06:26 47.42704 19.28737 584 ft 161 kts 135°
2026-05-06 06:27 47.41980 19.29988 1087 ft 165 kts 127°
2026-05-06 06:27 47.41417 19.31433 1681 ft 166 kts 124°
2026-05-06 06:27 47.40858 19.32964 2143 ft 170 kts 125°
2026-05-06 06:27 47.40288 19.34504 2645 ft 171 kts 125°
2026-05-06 06:28 47.39710 19.36045 3134 ft 172 kts 124°
2026-05-06 06:28 47.39129 19.37583 3626 ft 172 kts 125°
2026-05-06 06:28 47.38485 19.39166 3905 ft 188 kts 136°
2026-05-06 06:28 47.37355 19.40127 4112 ft 196 kts 175°
2026-05-06 06:29 47.35973 19.39869 4318 ft 212 kts 210°
2026-05-06 06:29 47.34871 19.38317 4687 ft 234 kts 239°
2026-05-06 06:29 47.34036 19.36194 5301 ft 248 kts 238°
2026-05-06 06:29 47.33116 19.34022 6170 ft 252 kts 237°
2026-05-06 06:30 47.32162 19.31836 6990 ft 256 kts 236°
2026-05-06 06:30 47.31191 19.29623 7839 ft 259 kts 236°
2026-05-06 06:30 47.30211 19.27385 8692 ft 262 kts 236°
2026-05-06 06:30 47.29194 19.25143 9520 ft 265 kts 229°
2026-05-06 06:31 47.27697 19.23588 10237 ft 271 kts 199°
2026-05-06 06:31 47.25776 19.23410 10660 ft 294 kts 172°
2026-05-06 06:31 47.23746 19.24227 10873 ft 318 kts 166°
2026-05-06 06:31 47.21609 19.25262 11385 ft 327 kts 165°
2026-05-06 06:32 47.19431 19.26320 12043 ft 332 kts 165°
2026-05-06 06:32 47.17226 19.27359 12716 ft 336 kts 166°
2026-05-06 06:32 47.14973 19.28384 13387 ft 340 kts 166°
2026-05-06 06:32 47.12690 19.29393 14001 ft 344 kts 166°
2026-05-06 06:33 47.10385 19.30392 14645 ft 347 kts 166°
2026-05-06 06:33 47.08059 19.31392 15227 ft 350 kts 166°
2026-05-06 06:33 47.05741 19.32386 15806 ft 354 kts 166°
2026-05-06 06:33 47.03365 19.33406 16378 ft 358 kts 166°
2026-05-06 06:34 47.00961 19.34438 16945 ft 362 kts 166°
2026-05-06 06:34 46.98534 19.35483 17530 ft 366 kts 166°
2026-05-06 06:34 46.96094 19.36539 18118 ft 369 kts 166°
2026-05-06 06:34 46.94472 19.37242 18467 ft 372 kts 166°
2026-05-06 06:35 46.94076 19.37414 18546 ft 372 kts 166°
2026-05-06 06:35 46.91582 19.38496 19052 ft 376 kts 166°
2026-05-06 06:35 46.89096 19.39574 19588 ft 379 kts 166°
2026-05-06 06:35 46.86555 19.40671 20123 ft 383 kts 166°
2026-05-06 06:36 46.83986 19.41778 20650 ft 387 kts 166°
2026-05-06 06:36 46.81400 19.42892 21170 ft 390 kts 166°
2026-05-06 06:36 46.78781 19.44017 21668 ft 394 kts 166°
2026-05-06 06:36 46.76142 19.45151 22162 ft 397 kts 166°
2026-05-06 06:37 46.73479 19.46294 22647 ft 401 kts 166°
2026-05-06 06:37 46.70790 19.47446 23124 ft 405 kts 166°
2026-05-06 06:37 46.68071 19.48611 23593 ft 409 kts 166°
2026-05-06 06:37 46.65366 19.49772 23996 ft 412 kts 166°
2026-05-06 06:38 46.62605 19.50954 24421 ft 415 kts 166°
2026-05-06 06:38 46.59829 19.52143 24833 ft 417 kts 166°
2026-05-06 06:38 46.57034 19.53334 25244 ft 419 kts 166°
2026-05-06 06:38 46.54227 19.54528 25648 ft 422 kts 166°
2026-05-06 06:39 46.51403 19.55730 26043 ft 424 kts 166°
2026-05-06 06:39 46.48562 19.56937 26428 ft 427 kts 166°
2026-05-06 06:39 46.45707 19.58149 26810 ft 429 kts 166°
2026-05-06 06:39 46.42874 19.59351 27175 ft 431 kts 166°
2026-05-06 06:40 46.39986 19.60574 27542 ft 433 kts 166°
2026-05-06 06:40 46.37087 19.61801 27917 ft 436 kts 167°
2026-05-06 06:40 46.34162 19.63037 28241 ft 439 kts 167°
2026-05-06 06:40 46.31224 19.64277 28587 ft 442 kts 167°
2026-05-06 06:41 46.28261 19.65526 28921 ft 444 kts 167°
2026-05-06 06:41 46.25284 19.66780 29272 ft 447 kts 167°
2026-05-06 06:41 46.22292 19.68043 29627 ft 449 kts 167°
2026-05-06 06:41 46.19358 19.69467 29962 ft 454 kts 160°
2026-05-06 06:42 46.16525 19.71557 30259 ft 460 kts 150°
2026-05-06 06:42 46.13854 19.74137 30533 ft 464 kts 148°
2026-05-06 06:42 46.11174 19.76752 30811 ft 466 kts 148°
2026-05-06 06:42 46.08486 19.79357 31198 ft 465 kts 149°
2026-05-06 06:43 46.05802 19.81943 31583 ft 465 kts 149°
2026-05-06 06:43 46.03110 19.84531 31956 ft 465 kts 149°
2026-05-06 06:43 46.00419 19.87121 32345 ft 465 kts 149°
2026-05-06 06:43 45.97768 19.89673 32724 ft 465 kts 149°
2026-05-06 06:44 45.95082 19.92259 33101 ft 465 kts 149°
2026-05-06 06:44 45.92393 19.94847 33486 ft 465 kts 149°
2026-05-06 06:44 45.89705 19.97428 33874 ft 465 kts 149°
2026-05-06 06:44 45.87016 20.00006 34224 ft 464 kts 149°
2026-05-06 06:45 45.84329 20.02576 34567 ft 464 kts 150°
2026-05-06 06:45 45.81653 20.05134 34897 ft 463 kts 149°
2026-05-06 06:45 45.78966 20.07703 34986 ft 464 kts 149°
2026-05-06 06:46 45.73605 20.12825 35007 ft 463 kts 149°
2026-05-06 06:46 45.68279 20.17904 35013 ft 463 kts 149°
2026-05-06 06:47 45.62917 20.22996 35013 ft 463 kts 149°
2026-05-06 06:47 45.57554 20.28073 35019 ft 463 kts 149°
2026-05-06 06:48 45.52182 20.33155 35001 ft 464 kts 149°
2026-05-06 06:48 45.46836 20.38208 35006 ft 465 kts 149°
2026-05-06 06:49 45.41439 20.43287 35011 ft 465 kts 149°
2026-05-06 06:49 45.36035 20.48358 35017 ft 466 kts 149°
2026-05-06 06:50 45.30624 20.53423 35025 ft 466 kts 149°
2026-05-06 06:50 45.25236 20.58460 35011 ft 467 kts 149°
2026-05-06 06:51 45.19797 20.63527 35022 ft 468 kts 149°
2026-05-06 06:51 45.14350 20.68588 35031 ft 469 kts 149°
2026-05-06 06:52 45.08895 20.73647 35039 ft 469 kts 149°
2026-05-06 06:52 45.03475 20.78671 35026 ft 469 kts 149°
2026-05-06 06:53 44.98006 20.83728 35031 ft 470 kts 149°
2026-05-06 06:53 44.92556 20.88846 35037 ft 471 kts 147°
2026-05-06 06:54 44.87245 20.94261 35040 ft 471 kts 145°
2026-05-06 06:54 44.82009 20.99724 35041 ft 472 kts 145°
2026-05-06 06:55 44.76694 21.05160 35038 ft 472 kts 146°
2026-05-06 06:55 44.71351 21.10547 35044 ft 473 kts 146°
2026-05-06 06:56 44.65995 21.15909 35043 ft 473 kts 146°
2026-05-06 06:56 44.60638 21.21284 35061 ft 474 kts 146°
2026-05-06 06:57 44.55311 21.26633 35048 ft 475 kts 146°
2026-05-06 06:57 44.49936 21.32010 35039 ft 475 kts 146°
2026-05-06 06:58 44.44552 21.37375 35048 ft 475 kts 146°
2026-05-06 06:58 44.39163 21.42739 35054 ft 475 kts 146°
2026-05-06 06:59 44.33811 21.48067 35054 ft 476 kts 146°
2026-05-06 06:59 44.28407 21.53434 35040 ft 477 kts 146°
2026-05-06 07:00 44.22989 21.58783 35050 ft 477 kts 146°
2026-05-06 07:00 44.17570 21.64120 35053 ft 477 kts 146°
2026-05-06 07:01 44.12182 21.69434 35064 ft 478 kts 145°
2026-05-06 07:01 44.06748 21.74770 35055 ft 479 kts 146°
2026-05-06 07:02 44.01300 21.80097 35046 ft 479 kts 146°
2026-05-06 07:02 43.95851 21.85428 35057 ft 479 kts 146°
2026-05-06 07:03 43.90434 21.90710 35064 ft 480 kts 145°
2026-05-06 07:03 43.84969 21.96031 35067 ft 480 kts 145°
2026-05-06 07:04 43.79498 22.01356 35050 ft 481 kts 146°
2026-05-06 07:04 43.74020 22.06660 35062 ft 480 kts 146°
2026-05-06 07:05 43.68544 22.11947 35063 ft 480 kts 146°
2026-05-06 07:05 43.63101 22.17186 35065 ft 480 kts 146°
2026-05-06 07:06 43.57624 22.22454 35073 ft 480 kts 146°
2026-05-06 07:06 43.52148 22.27726 35064 ft 480 kts 146°
2026-05-06 07:07 43.46662 22.32987 35079 ft 481 kts 146°
2026-05-06 07:07 43.41163 22.38234 35083 ft 481 kts 146°
2026-05-06 07:08 43.35687 22.43441 35081 ft 482 kts 146°
2026-05-06 07:08 43.30171 22.48687 35069 ft 482 kts 146°
2026-05-06 07:09 43.24654 22.53933 35093 ft 483 kts 146°
2026-05-06 07:09 43.19133 22.59173 35080 ft 483 kts 146°
2026-05-06 07:10 43.13634 22.64371 35098 ft 484 kts 146°
2026-05-06 07:10 43.08093 22.69592 35089 ft 484 kts 146°
2026-05-06 07:11 43.02539 22.74810 35101 ft 484 kts 146°
2026-05-06 07:11 42.96984 22.80025 35103 ft 485 kts 146°
2026-05-06 07:12 42.91482 22.85232 35098 ft 485 kts 146°
2026-05-06 07:12 42.85954 22.90515 35105 ft 485 kts 145°
2026-05-06 07:13 42.80429 22.95790 35101 ft 485 kts 145°
2026-05-06 07:13 42.74889 23.01047 35095 ft 486 kts 146°
2026-05-06 07:14 42.69371 23.06250 35105 ft 486 kts 146°
2026-05-06 07:14 42.63810 23.11480 35104 ft 486 kts 146°
2026-05-06 07:15 42.58251 23.16716 35114 ft 486 kts 145°
2026-05-06 07:15 42.52688 23.21948 35109 ft 487 kts 145°
2026-05-06 07:16 42.47149 23.27146 35110 ft 488 kts 146°
2026-05-06 07:16 42.41563 23.32373 35112 ft 488 kts 146°
2026-05-06 07:17 42.35977 23.37585 35105 ft 488 kts 146°
2026-05-06 07:17 42.30375 23.42791 35107 ft 488 kts 146°
2026-05-06 07:18 42.24819 23.47936 35131 ft 487 kts 146°
2026-05-06 07:18 42.19235 23.53110 35118 ft 486 kts 146°
2026-05-06 07:19 42.13661 23.58273 35120 ft 486 kts 146°
2026-05-06 07:19 42.08079 23.63425 35096 ft 487 kts 146°
2026-05-06 07:20 42.02486 23.68576 35091 ft 488 kts 146°
2026-05-06 07:20 41.96914 23.73679 35099 ft 488 kts 146°
2026-05-06 07:21 41.91305 23.78820 35117 ft 487 kts 146°
2026-05-06 07:21 41.85714 23.83946 35109 ft 486 kts 146°
2026-05-06 07:22 41.80124 23.89048 35106 ft 486 kts 146°
2026-05-06 07:22 41.74565 23.94101 35105 ft 486 kts 146°
2026-05-06 07:23 41.68968 23.99183 35103 ft 486 kts 146°
2026-05-06 07:23 41.63372 24.04267 35103 ft 487 kts 146°
2026-05-06 07:23 41.60503 24.06660 35082 ft 486 kts 157°
2026-05-06 07:24 41.57300 24.07927 35093 ft 479 kts 177°
2026-05-06 07:24 41.50696 24.08028 35096 ft 476 kts 179°
2026-05-06 07:25 41.44135 24.09039 35090 ft 479 kts 174°
2026-05-06 07:25 41.37543 24.10438 35085 ft 480 kts 174°
2026-05-06 07:26 41.30916 24.11605 35095 ft 480 kts 176°
2026-05-06 07:26 41.24271 24.12554 35089 ft 480 kts 177°
2026-05-06 07:27 41.17630 24.13479 35082 ft 481 kts 177°
2026-05-06 07:27 41.11009 24.14467 35083 ft 482 kts 176°
2026-05-06 07:28 41.04339 24.15488 35081 ft 482 kts 176°
2026-05-06 07:28 40.94323 24.17007 35079 ft 484 kts 176°
2026-05-06 07:29 40.87674 24.17987 35085 ft 484 kts 177°
2026-05-06 07:29 40.80967 24.18998 35087 ft 485 kts 177°
2026-05-06 07:30 40.74266 24.19995 35079 ft 485 kts 177°
2026-05-06 07:30 40.67548 24.20983 35090 ft 485 kts 177°
2026-05-06 07:31 40.60837 24.21987 35099 ft 486 kts 176°
2026-05-06 07:31 40.54157 24.22980 35089 ft 486 kts 177°
2026-05-06 07:32 40.47431 24.23971 35089 ft 487 kts 177°
2026-05-06 07:32 40.40700 24.24961 35093 ft 487 kts 177°
2026-05-06 07:33 40.33966 24.25961 35090 ft 487 kts 177°
2026-05-06 07:33 40.27278 24.26940 35094 ft 487 kts 177°
2026-05-06 07:34 40.20545 24.27935 35103 ft 487 kts 177°
2026-05-06 07:34 40.13799 24.28924 35100 ft 487 kts 177°
2026-05-06 07:35 40.07065 24.29905 35100 ft 487 kts 177°
2026-05-06 07:35 40.00328 24.30881 35102 ft 487 kts 177°
2026-05-06 07:36 39.93636 24.31854 35091 ft 487 kts 177°
2026-05-06 07:36 39.86905 24.32839 35092 ft 487 kts 177°
2026-05-06 07:37 39.80172 24.33810 35096 ft 487 kts 177°
2026-05-06 07:37 39.73445 24.34771 35090 ft 487 kts 177°
2026-05-06 07:38 39.66712 24.35741 35092 ft 487 kts 177°
2026-05-06 07:38 39.60025 24.36709 35097 ft 487 kts 177°
2026-05-06 07:39 39.53296 24.37679 35087 ft 486 kts 177°
2026-05-06 07:39 39.46574 24.38645 35102 ft 486 kts 177°
2026-05-06 07:40 39.39855 24.39611 35095 ft 486 kts 177°
2026-05-06 07:40 39.33176 24.40566 35080 ft 486 kts 177°
2026-05-06 07:41 39.26451 24.41524 35085 ft 487 kts 177°
2026-05-06 07:41 39.19716 24.42484 35087 ft 487 kts 177°
2026-05-06 07:42 39.12979 24.43442 35090 ft 487 kts 177°
2026-05-06 07:42 39.06290 24.44391 35084 ft 487 kts 177°
2026-05-06 07:43 38.99561 24.45344 35095 ft 487 kts 177°
2026-05-06 07:43 38.92828 24.46295 35099 ft 486 kts 177°
2026-05-06 07:44 38.86107 24.47245 35086 ft 485 kts 177°
2026-05-06 07:44 38.79392 24.48188 35099 ft 485 kts 177°
2026-05-06 07:45 38.72662 24.49053 34622 ft 488 kts 178°
2026-05-06 07:45 38.69323 24.49456 34154 ft 490 kts 178°
2026-05-06 07:45 38.65931 24.49864 33603 ft 490 kts 178°
2026-05-06 07:46 38.62533 24.50279 33068 ft 491 kts 177°
2026-05-06 07:46 38.59128 24.50705 32543 ft 491 kts 177°
2026-05-06 07:46 38.55729 24.51138 32029 ft 492 kts 177°
2026-05-06 07:46 38.52316 24.51574 31536 ft 492 kts 177°
2026-05-06 07:47 38.48911 24.52010 31032 ft 493 kts 177°
2026-05-06 07:47 38.45500 24.52446 30384 ft 492 kts 178°
2026-05-06 07:47 38.42095 24.52876 29640 ft 491 kts 178°
2026-05-06 07:47 38.38825 24.53289 29070 ft 485 kts 178°
2026-05-06 07:48 38.35490 24.53348 28439 ft 473 kts 192°
2026-05-06 07:48 38.32365 24.52313 27807 ft 458 kts 209°
2026-05-06 07:48 38.29579 24.50454 27171 ft 449 kts 215°
2026-05-06 07:48 38.26883 24.48476 26561 ft 445 kts 215°
2026-05-06 07:49 38.24214 24.46501 25834 ft 444 kts 215°
2026-05-06 07:49 38.21545 24.44518 25153 ft 443 kts 215°
2026-05-06 07:49 38.18897 24.42542 24557 ft 439 kts 215°
2026-05-06 07:49 38.16310 24.40607 23997 ft 435 kts 215°
2026-05-06 07:50 38.13714 24.38660 23417 ft 432 kts 215°
2026-05-06 07:50 38.11141 24.36728 22769 ft 428 kts 215°
2026-05-06 07:50 38.08585 24.34811 22160 ft 425 kts 215°
2026-05-06 07:50 38.06053 24.32913 21573 ft 421 kts 215°
2026-05-06 07:51 38.03540 24.31025 21033 ft 418 kts 215°
2026-05-06 07:51 38.01047 24.29148 20519 ft 415 kts 215°
2026-05-06 07:51 37.98579 24.27285 20015 ft 412 kts 215°
2026-05-06 07:51 37.96127 24.25426 19531 ft 409 kts 215°
2026-05-06 07:52 37.93690 24.23586 19051 ft 406 kts 215°
2026-05-06 07:52 37.91272 24.21758 18566 ft 403 kts 215°
2026-05-06 07:52 37.88902 24.19964 18020 ft 401 kts 215°
2026-05-06 07:52 37.86524 24.18152 17452 ft 398 kts 215°
2026-05-06 07:53 37.84169 24.16343 16909 ft 394 kts 215°
2026-05-06 07:53 37.81842 24.14539 16373 ft 390 kts 215°
2026-05-06 07:53 37.79545 24.12742 15830 ft 386 kts 215°
2026-05-06 07:53 37.77276 24.10952 15303 ft 383 kts 215°
2026-05-06 07:54 37.75035 24.09166 14769 ft 379 kts 215°
2026-05-06 07:54 37.72852 24.07411 14257 ft 375 kts 215°
2026-05-06 07:54 37.70668 24.05631 13731 ft 372 kts 216°
2026-05-06 07:54 37.68518 24.03865 13203 ft 367 kts 215°
2026-05-06 07:55 37.66386 24.02113 12647 ft 363 kts 215°
2026-05-06 07:55 37.64287 24.00383 12242 ft 356 kts 215°
2026-05-06 07:55 37.62244 23.98699 11990 ft 345 kts 215°
2026-05-06 07:55 37.60263 23.97068 11739 ft 335 kts 215°
2026-05-06 07:56 37.58459 23.95305 11492 ft 323 kts 230°
2026-05-06 07:56 37.57341 23.92936 11246 ft 310 kts 255°
2026-05-06 07:56 37.57117 23.90308 11016 ft 298 kts 279°
2026-05-06 07:56 37.57797 23.87929 10873 ft 285 kts 304°
2026-05-06 07:57 37.59147 23.86203 10604 ft 280 kts 323°
2026-05-06 07:57 37.60727 23.84778 10225 ft 277 kts 325°
2026-05-06 07:57 37.62313 23.83401 9581 ft 276 kts 325°
2026-05-06 07:57 37.63893 23.82036 8927 ft 274 kts 324°
2026-05-06 07:58 37.65345 23.80496 8291 ft 273 kts 316°
2026-05-06 07:58 37.66707 23.78837 7666 ft 271 kts 315°
2026-05-06 07:58 37.68054 23.77177 7066 ft 270 kts 315°
2026-05-06 07:58 37.69395 23.75527 6477 ft 268 kts 315°
2026-05-06 07:59 37.70733 23.73891 5851 ft 268 kts 315°
2026-05-06 07:59 37.72068 23.72277 5479 ft 267 kts 315°
2026-05-06 07:59 37.73361 23.70718 5332 ft 247 kts 315°
2026-05-06 07:59 37.74561 23.69276 5177 ft 230 kts 315°
2026-05-06 08:00 37.75817 23.68103 4782 ft 224 kts 338°
2026-05-06 08:00 37.77347 23.67950 4509 ft 223 kts 13°
2026-05-06 08:00 37.78645 23.68906 4377 ft 215 kts 49°
2026-05-06 08:00 37.79266 23.70565 4206 ft 209 kts 78°
2026-05-06 08:01 37.79462 23.72377 3928 ft 208 kts 84°
2026-05-06 08:01 37.79583 23.74172 3669 ft 208 kts 85°
2026-05-06 08:01 37.79693 23.75988 3393 ft 208 kts 85°
2026-05-06 08:01 37.79803 23.77808 3116 ft 207 kts 85°
2026-05-06 08:02 37.80072 23.79583 3007 ft 207 kts 66°
2026-05-06 08:02 37.80835 23.81091 2984 ft 205 kts 44°
2026-05-06 08:02 37.81929 23.82204 2829 ft 200 kts 35°
2026-05-06 08:02 37.83051 23.83260 2536 ft 202 kts 36°
2026-05-06 08:03 37.84171 23.84317 2273 ft 199 kts 36°
2026-05-06 08:03 37.85253 23.85343 2017 ft 189 kts 36°
2026-05-06 08:03 37.86276 23.86312 1771 ft 177 kts 36°
2026-05-06 08:03 37.87206 23.87194 1571 ft 160 kts 36°
2026-05-06 08:04 37.88061 23.88005 1354 ft 148 kts 37°
2026-05-06 08:04 37.88873 23.88775 1161 ft 144 kts 37°
2026-05-06 08:04 37.89671 23.89532 968 ft 142 kts 37°
2026-05-06 08:04 37.90460 23.90281 782 ft 141 kts 37°
2026-05-06 08:05 37.91242 23.91024 592 ft 140 kts 37°
2026-05-06 08:05 37.92016 23.91768 399 ft 140 kts 37°
2026-05-06 08:05 37.92780 23.92493 303 ft 128 kts 36°
2026-05-06 08:05 37.93360 23.93042 289 ft 81 kts 37°
2026-05-06 08:06 37.93540 23.93223 291 ft 16 kts 51°
2026-05-06 08:06 37.93595 23.93355 293 ft 17 kts 63°
2026-05-06 08:06 37.93620 23.93480 298 ft 13 kts 110°
2026-05-06 08:06 37.93545 23.93498 299 ft 13 kts 218°
2026-05-06 08:07 37.93472 23.93433 300 ft 11 kts 198°
2026-05-06 08:07 37.93409 23.93473 302 ft 10 kts 126°
2026-05-06 08:07 37.93362 23.93554 302 ft 12 kts 127°
2026-05-06 08:07 37.93307 23.93646 301 ft 14 kts 127°
2026-05-06 08:08 37.93245 23.93751 302 ft 16 kts 127°
2026-05-06 08:08 37.93172 23.93872 304 ft 17 kts 127°
2026-05-06 08:08 37.93116 23.93964 304 ft 5 kts 127°
2026-05-06 08:08 37.93116 23.93966 304 ft 0 kts 127°
2026-05-06 08:09 37.93114 23.93969 301 ft 1 kts 127°
2026-05-06 08:09 37.93100 23.93992 302 ft 5 kts 127°
2026-05-06 08:09 37.93092 23.94046 301 ft 8 kts 73°
2026-05-06 08:09 37.93138 23.94096 301 ft 10 kts 33°
2026-05-06 08:10 37.93204 23.94154 302 ft 13 kts 38°
2026-05-06 08:10 37.93276 23.94232 301 ft 13 kts 55°
2026-05-06 08:10 37.93269 23.94312 302 ft 10 kts 126°
2026-05-06 08:10 37.93225 23.94387 302 ft 11 kts 126°
2026-05-06 08:11 37.93191 23.94444 305 ft 6 kts 128°
2026-05-06 08:11 37.93172 23.94466 301 ft 3 kts 171°
2026-05-06 08:11 37.93149 23.94449 301 ft 5 kts 218°
2026-05-06 08:11 37.93128 23.94428 303 ft 3 kts 217°
2026-05-06 08:12 37.93117 23.94418 303 ft 2 kts 217°
2026-05-06 08:12 37.93113 23.94414 303 ft 0 kts 216°